Location: Unspecified
(0.0000°N, 0.0000°E)
Time: 07:13:39
(UTC+00:00)

Vanguard 2 Rocket - Pass Details

Date: 11 October 2022
Orbit: 555 x 3321 km, 32.9° (Epoch: 06 December)

Event Time Altitude Azimuth Distance (km) Brightness Sun altitude
Rises 14:13:58 0° 217° (SW) 4,953 11.1 52.6°
Reaches altitude 10° 14:17:06 10° 208° (SSW) 4,304 10.8 51.8°
Maximum altitude 14:28:54 40° 142° (SE) 3,484 10.1 48.9°
Drops below altitude 10° 14:46:07 10° 79° (E) 6,215 10.8 44.7°
Sets 14:51:42 0° 73° (ENE) 7,304 11.1 43.3°
